shoulder
new_line
new_line
first
second
third
Al di la della Luna; Beyond the Moon; Astrophotography; Astrofotografia; Danilo Pivato
 
 
         
         
2008

Orbital Elements

Epoch 2008 Apr. 4.0 TT = JDT 2454560.5
T 2008 Apr. 16.84977 TT                                                              MPC
q   1.2623592                  (2000.0)                P                           Q
z  -0.0000344      Peri.    180.92705      -0.61862242        -0.36370228
 +/-0.0000606      Node   307.78187     +0.72640742       +0.07301737
e   1.0000434      Incl.       61.78490     +0.29939699        -0.92864908                        
 
         
         
2008.02.09
 
         
         
       
       
         
         
         

 

       
 
Since: 01/01/2004
 
       
 
Since: 01/11/2010